Regional Weather Roundup
Issued by NWS

Home | Current Version | Previous Version | Text Only | Print | Product List | Glossary On
Versions: 1 2 3 4 5 6 7 8 9 10 11 12 13 14 15 16 17 18 19 20 21 22 23 24 25 26 27 28 29 30 31 32 33 34 35 36 37 38 39 40 41 42 43 44 45 46 47 48 49 50
000
ASUS43 KTOP 171908
RWRKS

WEATHER ROUNDUP FOR KANSAS
NATIONAL WEATHER SERVICE GOODLAND KS
200 PM CDT WED SEP 17 2014

NOTE:  "FAIR" INDICATES FEW OR NO CLOUDS BELOW 12,000 FEET WITH NO
SIGNIFICANT WEATHER AND/OR OBSTRUCTIONS TO VISIBILITY.

KSZ001>006-013>018-027>032-041>047-172000-
NORTHWEST KANSAS

CITY           SKY/WX    TMP DP  RH WIND       PRES   REMARKS
GOODLAND       SUNNY     88  52  29 S12       29.96F
HAYS           SUNNY     82  64  54 SE7       29.90F
HILL CITY      SUNNY     81  63  54 E8        29.92F
RUSSELL        SUNNY     82  66  58 E8        29.89F
$$

KSZ061>065-074>080-084>089-172000-
SOUTHWEST KANSAS

CITY           SKY/WX    TMP DP  RH WIND       PRES   REMARKS
DODGE CITY     MOSUNNY   90  53  28 CALM      29.91F
ELKHART          N/A     87  59  38 SW8         N/A
GARDEN CITY    MOSUNNY   89  55  31 S7        29.92F
GREAT BEND     SUNNY     84  64  51 NE6       29.88F
LIBERAL        PTSUNNY   90  57  33 W12       29.95F
PRATT          MOSUNNY   93  55  27 W6        29.89F
$$

KSZ066>073-081>083-090>101-172000-
SOUTHEAST KANSAS

CITY           SKY/WX    TMP DP  RH WIND       PRES   REMARKS
CHANUTE        PTSUNNY   89  70  53 W9        29.87F
COFFEYVILLE    SUNNY     89  71  55 SW13      29.86F HX  95
HUTCHINSON     SUNNY     90  64  42 CALM      29.87F
MEDICINE LODGE   N/A     92  62  36 W8        29.86F
NEWTON         SUNNY     88  64  45 NW8       29.90F
PARSONS        SUNNY     89  72  56 W10       29.88F HX  96
WICHITA INTL   MOSUNNY   94  61  33 VRB7      29.85F
WICHITA JABRA  SUNNY     91  62  37 W7        29.86F
WICHITA MCCONL SUNNY     93  60  32 SW5       29.86F
WINFIELD       SUNNY     93  63  36 SW9G17    29.87F
$$

KSZ007>012-019>026-033>040-048>060-102>105-172000-
NORTHEAST KANSAS

CITY           SKY/WX    TMP DP  RH WIND       PRES   REMARKS
CONCORDIA      CLOUDY    75  67  76 E12       29.91F
EMPORIA        MOSUNNY   80  68  66 E10       29.90F
LAWRENCE       CLOUDY    74  66  76 E8        29.91F
MANHATTAN      CLOUDY    74  66  76 E9        29.91F
MARYSVILLE     MOSUNNY   77  66  69 E9        29.91F
OLATHE IND     CLOUDY    75  67  76 E7        29.92F
OLATHE EXE     CLOUDY    72  68  87 NE6       29.91F
SALINA         SUNNY     83  67  58 NE8       29.88F
TOPEKA BILLARD CLOUDY    76  69  79 NE7       29.92S
TOPEKA FORBES  CLOUDY    75  67  76 E6        29.92F
$$


USA.gov is the U.S. government's official web portal to all federal, state and local government web resources and services.